Retour au catalogue

COSMOS 1879

ActifNavigationPO
NORAD 18338·PAYLOAD·🇷🇺 Russia

Lancé Sep 7, 1987 depuis Plesetsk Cosmodrome

Loading…

Prochains Passages (prochaines 24 heures)

TLE

FraisSource: Space-Track

Époque: Sep 14, 2026, 09:09 UTC

1 18338U 87074E   26257.38169925  .00000005  00000-0 -31272-4 0  9999
2 18338  82.5688 225.9155 0006643  12.6467 140.6823 12.65029332801338

Suivez COSMOS 1879 en temps réel avec AllMySat

Download on the App Store